Terminal Aerodrome Forecast
Issued by NWS Bismarck, ND

Home | Current Version | Previous Version | Text Only | Print | Product List | Glossary Off
Versions: 1 2 3 4 5 6 7 8 9 10 11 12 13 14 15 16 17 18

000
FTUS43 KBIS 281121
TAFISN
TAF
KISN 281121Z 2812/2912 VRB04KT P6SM OVC015
      TEMPO 2813/2815 SCT015 BKN035
     FM281500 27008KT P6SM SCT035 BKN070
     FM281800 33014KT P6SM VCSH BKN050
     FM282200 35015G20KT P6SM VCSH BKN050
     FM290600 01011KT P6SM SCT035=

USA.gov is the U.S. government's official web portal to all federal, state and local government web resources and services.